TimeMST,TemperatureF,Dew PointF,Humidity,Sea Level PressureIn,VisibilityMPH,Wind Direction,Wind SpeedMPH,Gust SpeedMPH,PrecipitationIn,Events,Conditions,WindDirDegrees,DateUTC
12:53 AM,60.1,28.9,31,29.96,10.0,West,3.5,-,N/A,,Clear,280,2013-03-29 07:53:00
1:53 AM,59.0,30.0,33,29.97,10.0,Calm,Calm,-,N/A,,Clear,0,2013-03-29 08:53:00
2:53 AM,55.0,28.9,37,29.98,10.0,Calm,Calm,-,N/A,,Clear,0,2013-03-29 09:53:00
3:53 AM,53.1,28.9,40,29.99,10.0,Calm,Calm,-,N/A,,Clear,0,2013-03-29 10:53:00
4:53 AM,54.0,28.9,38,30.00,10.0,South,3.5,-,N/A,,Clear,170,2013-03-29 11:53:00
5:53 AM,51.1,28.9,43,30.03,10.0,Calm,Calm,-,N/A,,Clear,0,2013-03-29 12:53:00
6:53 AM,52.0,30.0,43,30.05,10.0,ESE,3.5,-,N/A,,Clear,120,2013-03-29 13:53:00
7:53 AM,57.9,28.9,33,30.07,10.0,Calm,Calm,-,N/A,,Clear,0,2013-03-29 14:53:00
8:53 AM,60.1,28.9,31,30.07,10.0,NE,3.5,-,N/A,,Clear,40,2013-03-29 15:53:00
9:53 AM,63.0,28.9,28,30.06,10.0,ENE,4.6,-,N/A,,Clear,60,2013-03-29 16:53:00
10:53 AM,66.9,28.0,23,30.04,10.0,NE,5.8,-,N/A,,Clear,50,2013-03-29 17:53:00
11:53 AM,70.0,28.0,21,30.02,10.0,Variable,3.5,-,N/A,,Clear,0,2013-03-29 18:53:00
12:53 PM,71.1,27.0,19,30.00,10.0,Variable,4.6,-,N/A,,Clear,0,2013-03-29 19:53:00
1:53 PM,73.9,26.1,17,29.97,10.0,ENE,6.9,-,N/A,,Clear,60,2013-03-29 20:53:00
2:53 PM,75.0,25.0,16,29.96,10.0,Variable,5.8,-,N/A,,Clear,0,2013-03-29 21:53:00
3:53 PM,75.9,23.0,14,29.94,10.0,North,4.6,-,N/A,,Clear,360,2013-03-29 22:53:00
4:53 PM,75.0,21.0,13,29.93,10.0,Calm,Calm,-,N/A,,Clear,0,2013-03-29 23:53:00
5:53 PM,73.9,21.9,14,29.95,10.0,NNW,6.9,-,N/A,,Clear,340,2013-03-30 00:53:00
6:53 PM,70.0,27.0,20,29.96,10.0,NNW,3.5,-,N/A,,Clear,340,2013-03-30 01:53:00
7:53 PM,66.0,28.0,24,29.97,10.0,West,3.5,-,N/A,,Clear,260,2013-03-30 02:53:00
8:53 PM,63.0,28.0,27,29.99,10.0,WSW,3.5,-,N/A,,Partly Cloudy,250,2013-03-30 03:53:00
9:53 PM,63.0,28.0,27,30.01,10.0,Calm,Calm,-,N/A,,Clear,0,2013-03-30 04:53:00
10:53 PM,63.0,28.0,27,30.00,10.0,WSW,4.6,-,N/A,,Clear,250,2013-03-30 05:53:00
11:53 PM,60.1,28.0,30,30.01,10.0,Calm,Calm,-,N/A,,Clear,0,2013-03-30 06:53:00